Franklin, NC

10:20 PM EST on February 09, 2016 (GMT -0500)
Franklin

Weather History for K1A5 - April, 2013

Change the Weather History Date:

Thursday, April 25, 2013

  Actual Average (KTOC) Record (KTOC)
Temperature  
Mean Temperature 51 °F -  
Max Temperature 66 °F 75 °F 83 °F (2014)
Min Temperature 36 °F 48 °F 54 °F (2015)
Degree Days  
Heating Degree Days 14    
Growing Degree Days 1 (Base 50)    
Moisture  
Dew Point 28 °F    
Average Humidity 52    
Maximum Humidity 95    
Minimum Humidity 9    
Precipitation  
Precipitation 0.00 in - - ()
Sea Level Pressure  
Sea Level Pressure 30.24 in    
Wind  
Wind Speed 4 mph (WNW)    
Max Wind Speed 13 mph    
Max Gust Speed 18 mph    
Visibility 10 miles    
Events      
Averages and records for this station are not official NWS values.
T = Trace of Precipitation, MM = Missing Value Source: NWS Daily Summary

Daily Weather History Graph

Daily Weather History Graph

Search for Another Location

Airport or City:

Trip Planner

Search our weather history database for the weather conditions in past years. The results will help you decide how hot, cold, wet, or windy it might be!

Date:

Astronomy

Apr. 25, 2013 Rise Set
Actual Time 6:48 AM EDT 8:14 PM EDT
Civil Twilight 6:22 AM EDT 8:41 PM EDT
Nautical Twilight 5:50 AM EDT 9:13 PM EDT
Astronomical Twilight 5:16 AM EDT 9:47 PM EDT
Moon 8:25 PM EDT (4/25) 6:30 AM EDT (4/25)
Length of Visible Light 14h 19m
Length of Day
13h 25m
Full, 100% of the Moon is Illuminated
Apr 25
Full
Apr 25
Full
May 2
Last Quarter
May 9
New
May 18
First Quarter

Hourly Weather History & Observations

Time (EDT) Temp. Windchill Dew Point Humidity Pressure Visibility Wind Dir Wind Speed Gust Speed Precip Events Conditions
12:15 AM 52.3 °F - 45.7 °F 78% 30.15 in 10.0 mi West 3.5 mph - N/A   Overcast
12:35 AM 51.8 °F - 44.8 °F 77% 30.15 in 10.0 mi West 3.5 mph - N/A   Overcast
12:55 AM 51.1 °F - 43.7 °F 76% 30.15 in 10.0 mi West 6.9 mph - N/A   Overcast
1:15 AM 50.2 °F - 43.0 °F 76% 30.15 in 10.0 mi WNW 6.9 mph - N/A   Overcast
1:35 AM 49.5 °F - 42.4 °F 77% 30.15 in 10.0 mi West 6.9 mph - N/A   Overcast
1:55 AM 48.6 °F - 42.1 °F 78% 30.16 in 10.0 mi NW 8.1 mph - N/A   Overcast
2:15 AM 47.1 °F - 41.0 °F 79% 30.16 in 10.0 mi WNW 3.5 mph - N/A   Mostly Cloudy
2:35 AM 46.0 °F 43.9 °F 40.3 °F 80% 30.16 in 10.0 mi West 4.6 mph - N/A   Clear
2:55 AM 45.1 °F 43.7 °F 39.9 °F 82% 30.14 in 10.0 mi WNW 3.5 mph - N/A   Scattered Clouds
3:15 AM 45.0 °F 43.5 °F 39.6 °F 81% 30.15 in 10.0 mi West 3.5 mph - N/A   Scattered Clouds
3:35 AM 44.6 °F 40.2 °F 38.7 °F 80% 30.16 in 10.0 mi NW 8.1 mph - N/A   Clear
3:55 AM 43.7 °F 41.1 °F 37.9 °F 80% 30.17 in 10.0 mi NNW 4.6 mph - N/A   Clear
4:15 AM 43.0 °F - 37.4 °F 81% 30.18 in 10.0 mi Calm Calm - N/A   Clear
4:35 AM 42.4 °F 38.8 °F 36.7 °F 80% 30.18 in 10.0 mi WNW 5.8 mph - N/A   Clear
4:55 AM 42.1 °F 40.2 °F 36.1 °F 79% 30.18 in 10.0 mi West 3.5 mph - N/A   Clear
5:15 AM 41.0 °F - 35.8 °F 82% 30.18 in 10.0 mi Calm Calm - N/A   Clear
5:35 AM 39.9 °F 37.8 °F 35.6 °F 85% 30.19 in 10.0 mi West 3.5 mph - N/A   Clear
5:55 AM 38.5 °F 35.0 °F 34.9 °F 87% 30.19 in 10.0 mi WSW 4.6 mph - N/A   Scattered Clouds
6:15 AM 37.9 °F 35.5 °F 35.2 °F 90% 30.19 in 10.0 mi West 3.5 mph - N/A   Clear
6:35 AM 36.7 °F - 34.3 °F 91% 30.21 in 10.0 mi Calm Calm - N/A   Scattered Clouds
6:55 AM 36.5 °F - 35.1 °F 95% 30.21 in 10.0 mi Calm Calm - N/A   Scattered Clouds
7:15 AM 36.9 °F - 35.4 °F 95% 30.23 in 10.0 mi Calm Calm - N/A   Mostly Cloudy
7:35 AM 37.2 °F - 35.6 °F 94% 30.23 in 10.0 mi Calm Calm - N/A   Mostly Cloudy
7:55 AM 37.6 °F 34.0 °F 36.1 °F 95% 30.23 in 10.0 mi WSW 4.6 mph - N/A   Mostly Cloudy
8:15 AM 39.4 °F - 37.8 °F 94% 30.23 in 10.0 mi Calm Calm - N/A   Overcast
8:35 AM 41.9 °F - 37.0 °F 83% 30.24 in 10.0 mi Calm Calm - N/A   Mostly Cloudy
8:55 AM 44.2 °F - 37.6 °F 77% 30.25 in 10.0 mi Calm Calm - N/A   Mostly Cloudy
9:15 AM 45.0 °F - 36.7 °F 73% 30.25 in 10.0 mi Calm Calm - N/A   Scattered Clouds
9:35 AM 46.2 °F - 37.2 °F 71% 30.24 in 10.0 mi Calm Calm - N/A   Clear
9:55 AM 48.4 °F - 37.6 °F 66% 30.25 in 10.0 mi Calm Calm - N/A   Clear
10:15 AM 48.9 °F - 37.9 °F 66% 30.26 in 10.0 mi Calm Calm - N/A   Clear
10:35 AM 50.2 °F - 37.8 °F 62% 30.26 in 10.0 mi Calm Calm - N/A   Clear
10:55 AM 52.2 °F - 38.3 °F 59% 30.27 in 10.0 mi Calm Calm - N/A   Clear
11:15 AM 53.8 °F - 37.4 °F 54% 30.27 in 10.0 mi Calm Calm - N/A   Clear
11:35 AM 55.9 °F - 37.0 °F 49% 30.27 in 10.0 mi Calm Calm - N/A   Clear
11:55 AM 57.4 °F - 32.9 °F 40% 30.27 in 10.0 mi Calm Calm - N/A   Clear
12:15 PM 59.2 °F - 30.6 °F 34% 30.27 in 10.0 mi NNW 5.8 mph - N/A   Clear
12:35 PM 60.4 °F - 34.5 °F 38% 30.27 in 10.0 mi NNW 6.9 mph - N/A   Clear
12:55 PM 62.4 °F - 25.2 °F 24% 30.26 in 10.0 mi NW 9.2 mph - N/A   Clear
1:15 PM 63.5 °F - 17.4 °F 17% 30.26 in 10.0 mi NW 9.2 mph - N/A   Clear
1:35 PM 63.9 °F - 16.5 °F 16% 30.26 in 10.0 mi West 5.8 mph - N/A   Clear
1:55 PM 64.6 °F - 17.1 °F 16% 30.26 in 10.0 mi WNW 10.4 mph 18.4 mph N/A   Clear
2:15 PM 64.8 °F - 19.9 °F 18% 30.25 in 10.0 mi West 9.2 mph - N/A   Clear
2:35 PM 64.9 °F - 16.0 °F 15% 30.25 in 10.0 mi West 4.6 mph - N/A   Clear
2:55 PM 65.5 °F - 18.3 °F 16% 30.26 in 10.0 mi NW 9.2 mph - N/A   Clear
3:15 PM 66.2 °F - 17.6 °F 15% 30.25 in 10.0 mi NNW 6.9 mph - N/A   Clear
3:35 PM 66.2 °F - 15.8 °F 14% 30.25 in 10.0 mi North 5.8 mph - N/A   Clear
3:55 PM 66.6 °F - 12.9 °F 13% 30.24 in 10.0 mi North 10.4 mph - N/A   Clear
4:15 PM 66.4 °F - 15.6 °F 14% 30.24 in 10.0 mi North 10.4 mph - N/A   Clear
4:35 PM 66.6 °F - 7.9 °F 10% 30.23 in 10.0 mi North 6.9 mph - N/A   Clear
4:55 PM 66.2 °F - 6.8 °F 10% 30.23 in 10.0 mi North 12.7 mph 16.1 mph N/A   Clear
5:15 PM 65.8 °F - 6.6 °F 10% 30.23 in 10.0 mi North 10.4 mph - N/A   Clear
5:35 PM 66.0 °F - 5.9 °F 9% 30.24 in 10.0 mi NW 5.8 mph - N/A   Clear
5:55 PM 64.8 °F - 3.4 °F 9% 30.25 in 10.0 mi NNW 6.9 mph 18.4 mph N/A   Clear
6:15 PM 64.4 °F - 3.4 °F 9% 30.25 in 10.0 mi NW 6.9 mph 16.1 mph N/A   Clear
6:35 PM 63.9 °F - 8.4 °F 11% 30.26 in 10.0 mi NW 6.9 mph - N/A   Clear
6:55 PM 63.1 °F - 9.0 °F 12% 30.26 in 10.0 mi NW 6.9 mph - N/A   Clear
7:15 PM 61.7 °F - 11.1 °F 14% 30.27 in 10.0 mi NW 9.2 mph - N/A   Clear
7:35 PM 60.6 °F - 14.2 °F 16% 30.27 in 10.0 mi NW 5.8 mph - N/A   Clear
7:55 PM 59.2 °F - 14.2 °F 17% 30.27 in 10.0 mi WNW 6.9 mph - N/A   Clear
8:15 PM 57.7 °F - 16.3 °F 20% 30.27 in 10.0 mi NW 5.8 mph - N/A   Clear
8:35 PM 56.5 °F - 18.5 °F 23% 30.28 in 10.0 mi Calm Calm - N/A   Clear
8:55 PM 53.1 °F - 22.6 °F 31% 30.29 in 10.0 mi Calm Calm - N/A   Clear
9:15 PM 51.4 °F - 26.1 °F 37% 30.30 in 10.0 mi Calm Calm - N/A   Clear
9:55 PM 47.1 °F - 28.8 °F 49% 30.31 in 10.0 mi West 3.5 mph - N/A   Clear
10:15 PM 44.2 °F 41.8 °F 29.7 °F 57% 30.32 in 10.0 mi WSW 4.6 mph - N/A   Clear
10:35 PM 41.9 °F 38.2 °F 30.4 °F 64% 30.33 in 10.0 mi SW 5.8 mph - N/A   Clear
10:55 PM 41.9 °F 37.5 °F 30.2 °F 63% 30.33 in 10.0 mi WSW 6.9 mph - N/A   Clear
11:15 PM 41.0 °F 38.0 °F 30.4 °F 66% 30.34 in 10.0 mi WSW 4.6 mph - N/A   Clear
11:35 PM 40.3 °F - 30.6 °F 68% 30.34 in 10.0 mi Calm Calm - N/A   Clear
11:55 PM 37.6 °F - 30.6 °F 76% 30.35 in 10.0 mi Calm Calm - N/A   Clear